TimePST,TemperatureF,Dew PointF,Humidity,Sea Level PressureIn,VisibilityMPH,Wind Direction,Wind SpeedMPH,Gust SpeedMPH,PrecipitationIn,Events,Conditions,WindDirDegrees,DateUTC
12:15 AM,53.6,46.4,77,30.01,10.0,WSW,4.6,-,N/A,,Clear,250,2014-02-19 08:15:00
12:35 AM,46.4,41.0,81,30.02,10.0,ENE,5.8,-,N/A,,Clear,70,2014-02-19 08:35:00
12:55 AM,46.4,41.0,81,30.02,10.0,ENE,4.6,-,N/A,,Clear,70,2014-02-19 08:55:00
1:15 AM,46.4,41.0,81,30.02,10.0,East,4.6,-,N/A,,Clear,80,2014-02-19 09:15:00
1:35 AM,46.4,41.0,81,30.02,10.0,East,4.6,-,N/A,,Clear,90,2014-02-19 09:35:00
1:55 AM,44.6,41.0,87,30.01,10.0,Calm,Calm,-,N/A,,Clear,0,2014-02-19 09:55:00
2:15 AM,44.6,39.2,81,30.01,10.0,Calm,Calm,-,N/A,,Clear,0,2014-02-19 10:15:00
2:35 AM,44.6,39.2,81,30.02,10.0,Calm,Calm,-,N/A,,Clear,0,2014-02-19 10:35:00
2:55 AM,42.8,37.4,81,30.02,10.0,Calm,Calm,-,N/A,,Clear,0,2014-02-19 10:55:00
3:15 AM,42.8,39.2,87,30.03,10.0,Calm,Calm,-,N/A,,Clear,0,2014-02-19 11:15:00
3:35 AM,42.8,37.4,81,30.04,10.0,WSW,4.6,-,N/A,,Clear,240,2014-02-19 11:35:00
3:55 AM,50.0,44.6,82,30.04,10.0,West,6.9,-,N/A,,Clear,280,2014-02-19 11:55:00
4:15 AM,51.8,46.4,82,30.04,10.0,WNW,9.2,-,N/A,,Clear,290,2014-02-19 12:15:00
4:35 AM,51.8,46.4,82,30.04,10.0,WNW,5.8,-,N/A,,Clear,290,2014-02-19 12:35:00
4:55 AM,51.8,44.6,76,30.05,10.0,West,6.9,-,N/A,,Clear,260,2014-02-19 12:55:00
5:15 AM,51.8,44.6,76,30.04,10.0,West,5.8,-,N/A,,Clear,280,2014-02-19 13:15:00
5:35 AM,50.0,44.6,82,30.04,9.0,West,6.9,-,N/A,,Clear,270,2014-02-19 13:35:00
5:55 AM,48.2,44.6,87,30.04,10.0,SW,5.8,-,N/A,,Clear,230,2014-02-19 13:55:00
6:15 AM,48.2,42.8,82,30.04,9.0,West,6.9,-,N/A,,Clear,280,2014-02-19 14:15:00
6:35 AM,46.4,41.0,81,30.03,10.0,West,6.9,-,N/A,,Clear,270,2014-02-19 14:35:00
6:55 AM,46.4,39.2,76,30.04,10.0,West,11.5,-,N/A,,Clear,260,2014-02-19 14:55:00
7:15 AM,48.2,39.2,71,30.04,10.0,West,10.4,-,N/A,,Clear,270,2014-02-19 15:15:00
7:35 AM,51.8,39.2,62,30.04,10.0,WSW,13.8,-,N/A,,Clear,250,2014-02-19 15:35:00
7:55 AM,57.2,39.2,51,30.05,10.0,NW,16.1,20.7,N/A,,Clear,310,2014-02-19 15:55:00
8:15 AM,60.8,39.2,45,30.06,10.0,North,12.7,-,N/A,,Clear,10,2014-02-19 16:15:00
8:35 AM,62.6,39.2,42,30.07,10.0,North,10.4,17.3,N/A,,Clear,360,2014-02-19 16:35:00
8:55 AM,64.4,39.2,40,30.07,10.0,WSW,4.6,-,N/A,,Clear,250,2014-02-19 16:55:00
9:15 AM,64.4,39.2,40,30.08,10.0,NNE,8.1,-,N/A,,Clear,20,2014-02-19 17:15:00
9:35 AM,66.2,39.2,37,30.07,10.0,North,16.1,20.7,N/A,,Clear,360,2014-02-19 17:35:00
9:55 AM,68.0,39.2,35,30.07,10.0,NW,9.2,-,N/A,,Clear,320,2014-02-19 17:55:00
10:15 AM,68.0,39.2,35,30.08,10.0,North,16.1,21.9,N/A,,Clear,10,2014-02-19 18:15:00
10:35 AM,69.8,37.4,31,30.08,10.0,NNE,19.6,25.3,N/A,,Clear,30,2014-02-19 18:35:00
10:55 AM,69.8,37.4,31,30.07,10.0,North,17.3,28.8,N/A,,Clear,10,2014-02-19 18:55:00
11:15 AM,69.8,37.4,31,30.07,10.0,NNE,16.1,26.5,N/A,,Clear,20,2014-02-19 19:15:00
11:35 AM,71.6,37.4,29,30.05,10.0,NNE,13.8,21.9,N/A,,Clear,30,2014-02-19 19:35:00
11:55 AM,73.4,37.4,27,30.05,10.0,NNW,10.4,-,N/A,,Clear,330,2014-02-19 19:55:00
12:15 PM,73.4,37.4,27,30.04,10.0,North,15.0,23.0,N/A,,Clear,350,2014-02-19 20:15:00
12:35 PM,73.4,37.4,27,30.03,10.0,North,12.7,23.0,N/A,,Clear,10,2014-02-19 20:35:00
12:55 PM,73.4,37.4,27,30.02,10.0,NNE,15.0,19.6,N/A,,Clear,20,2014-02-19 20:55:00
1:15 PM,75.2,37.4,25,30.01,10.0,WNW,16.1,19.6,N/A,,Clear,300,2014-02-19 21:15:00
1:35 PM,71.6,42.8,35,30.02,10.0,WNW,17.3,25.3,N/A,,Clear,300,2014-02-19 21:35:00
1:55 PM,68.0,44.6,43,30.03,10.0,WNW,25.3,31.1,N/A,,Clear,300,2014-02-19 21:55:00
2:15 PM,64.4,46.4,52,30.03,10.0,NW,21.9,31.1,N/A,,Clear,310,2014-02-19 22:15:00
2:35 PM,64.4,46.4,52,30.04,10.0,NW,24.2,32.2,N/A,,Clear,310,2014-02-19 22:35:00
2:55 PM,64.4,46.4,52,30.04,10.0,WNW,20.7,29.9,N/A,,Clear,300,2014-02-19 22:55:00
3:15 PM,62.6,46.4,55,30.04,10.0,WNW,25.3,29.9,N/A,,Clear,300,2014-02-19 23:15:00
3:35 PM,60.8,46.4,59,30.05,10.0,NW,19.6,28.8,N/A,,Clear,310,2014-02-19 23:35:00
3:55 PM,62.6,46.4,55,30.05,10.0,NW,18.4,26.5,N/A,,Clear,310,2014-02-19 23:55:00
4:15 PM,60.8,46.4,59,30.05,10.0,WNW,16.1,25.3,N/A,,Clear,290,2014-02-20 00:15:00
4:35 PM,60.8,46.4,59,30.05,10.0,WNW,13.8,19.6,N/A,,Clear,290,2014-02-20 00:35:00
4:55 PM,57.2,44.6,63,30.05,10.0,WNW,13.8,25.3,N/A,,Clear,290,2014-02-20 00:55:00
5:15 PM,57.2,44.6,63,30.05,10.0,WNW,11.5,21.9,N/A,,Clear,300,2014-02-20 01:15:00
5:35 PM,55.4,44.6,67,30.05,10.0,West,10.4,19.6,N/A,,Clear,280,2014-02-20 01:35:00
5:55 PM,55.4,44.6,67,30.05,10.0,WNW,9.2,17.3,N/A,,Clear,290,2014-02-20 01:55:00
6:15 PM,53.6,44.6,72,30.06,10.0,West,8.1,-,N/A,,Clear,260,2014-02-20 02:15:00
6:35 PM,53.6,44.6,72,30.07,10.0,West,9.2,-,N/A,,Clear,260,2014-02-20 02:35:00
6:55 PM,53.6,44.6,72,30.07,10.0,WSW,9.2,-,N/A,,Clear,250,2014-02-20 02:55:00
7:55 PM,53.6,44.6,72,30.08,10.0,West,8.1,-,N/A,,Clear,270,2014-02-20 03:55:00
8:15 PM,53.6,44.6,72,30.08,10.0,West,8.1,-,N/A,,Clear,260,2014-02-20 04:15:00
8:35 PM,51.8,44.6,76,30.08,10.0,West,9.2,-,N/A,,Clear,280,2014-02-20 04:35:00
8:55 PM,51.8,44.6,76,30.09,10.0,West,9.2,-,N/A,,Clear,280,2014-02-20 04:55:00
9:15 PM,51.8,44.6,76,30.09,10.0,WNW,4.6,-,N/A,,Clear,300,2014-02-20 05:15:00
9:35 PM,51.8,44.6,76,30.09,10.0,NW,5.8,-,N/A,,Clear,310,2014-02-20 05:35:00
9:55 PM,50.0,44.6,82,30.09,10.0,West,8.1,-,N/A,,Clear,270,2014-02-20 05:55:00
10:15 PM,50.0,44.6,82,30.08,10.0,WNW,6.9,-,N/A,,Clear,290,2014-02-20 06:15:00
10:35 PM,50.0,44.6,82,30.09,10.0,SSW,3.5,-,N/A,,Clear,210,2014-02-20 06:35:00
10:55 PM,48.2,44.6,87,30.08,10.0,West,3.5,-,N/A,,Clear,260,2014-02-20 06:55:00
11:15 PM,46.4,42.8,87,30.08,8.0,Calm,Calm,-,N/A,,Clear,0,2014-02-20 07:15:00
11:35 PM,46.4,41.0,81,30.07,9.0,NW,4.6,-,N/A,,Clear,310,2014-02-20 07:35:00
11:55 PM,46.4,42.8,87,30.07,10.0,Calm,Calm,-,N/A,,Clear,0,2014-02-20 07:55:00